TimeMST,TemperatureF,Dew PointF,Humidity,Sea Level PressureIn,VisibilityMPH,Wind Direction,Wind SpeedMPH,Gust SpeedMPH,PrecipitationIn,Events,Conditions,WindDirDegrees,DateUTC
12:56 AM,27.0,24.1,89,30.50,-9999.0,Calm,Calm,-,N/A,,Unknown,0,2013-03-02 07:56:00
1:56 AM,26.1,23.0,88,30.51,-9999.0,Calm,Calm,-,N/A,,Unknown,0,2013-03-02 08:56:00
2:56 AM,26.1,24.1,92,30.50,-9999.0,Calm,Calm,-,N/A,,Unknown,0,2013-03-02 09:56:00
3:56 AM,26.1,23.0,88,30.48,-9999.0,Calm,Calm,-,N/A,,Unknown,0,2013-03-02 10:56:00
4:56 AM,26.1,23.0,88,30.49,-9999.0,Calm,Calm,-,N/A,,Unknown,0,2013-03-02 11:56:00
5:56 AM,26.1,23.0,88,30.50,-9999.0,Calm,Calm,-,N/A,,Unknown,0,2013-03-02 12:56:00
6:56 AM,27.0,24.1,89,30.51,-9999.0,Calm,Calm,-,N/A,,Unknown,0,2013-03-02 13:56:00
7:56 AM,27.0,24.1,89,30.50,-9999.0,Calm,Calm,-,N/A,,Unknown,0,2013-03-02 14:56:00
8:56 AM,28.9,26.1,89,30.48,-9999.0,Calm,Calm,-,N/A,,Unknown,0,2013-03-02 15:56:00
9:56 AM,30.9,26.1,82,30.45,-9999.0,Calm,Calm,-,N/A,,Unknown,0,2013-03-02 16:56:00
10:56 AM,33.1,26.1,75,30.42,-9999.0,Variable,5.8,-,N/A,,Unknown,0,2013-03-02 17:56:00
11:56 AM,34.0,26.1,73,30.38,-9999.0,Variable,4.6,-,N/A,,Unknown,0,2013-03-02 18:56:00
12:56 PM,35.1,26.1,70,30.35,-9999.0,Variable,3.5,-,N/A,,Unknown,0,2013-03-02 19:56:00
1:56 PM,36.0,26.1,67,30.32,-9999.0,Variable,4.6,-,N/A,,Unknown,0,2013-03-02 20:56:00
2:56 PM,37.0,25.0,62,30.27,-9999.0,Calm,Calm,-,N/A,,Unknown,0,2013-03-02 21:56:00
3:56 PM,34.0,25.0,70,30.29,-9999.0,Variable,3.5,-,N/A,,Unknown,0,2013-03-02 22:56:00
4:56 PM,34.0,25.0,70,30.25,-9999.0,Variable,4.6,-,N/A,,Unknown,0,2013-03-02 23:56:00
5:56 PM,32.0,25.0,75,30.22,-9999.0,Calm,Calm,-,N/A,,Unknown,0,2013-03-03 00:56:00
6:56 PM,28.9,24.1,82,30.20,-9999.0,Calm,Calm,-,N/A,,Unknown,0,2013-03-03 01:56:00
7:56 PM,28.0,24.1,85,30.18,-9999.0,Calm,Calm,-,N/A,,Unknown,0,2013-03-03 02:56:00
8:56 PM,27.0,23.0,85,30.16,-9999.0,Calm,Calm,-,N/A,,Unknown,0,2013-03-03 03:56:00
9:56 PM,26.1,23.0,88,30.14,-9999.0,Calm,Calm,-,N/A,,Unknown,0,2013-03-03 04:56:00
10:56 PM,28.9,24.1,82,30.10,-9999.0,Calm,Calm,-,N/A,,Unknown,0,2013-03-03 05:56:00
11:56 PM,30.0,24.1,79,30.06,-9999.0,Calm,Calm,-,N/A,,Unknown,0,2013-03-03 06:56:00